WBANNO,USDM_WEEK,LONGITUDE,LATITUDE,SMVWC_5_CM_MEAN,SMANOM_5_CM_MEAN,SMPERC_5_CM_30COUNTS,SMPERC_5_CM_70COUNTS,SMVWC_10_CM_MEAN,SMANOM_10_CM_MEAN,SMPERC_10_CM_30COUNTS,SMPERC_10_CM_70COUNTS,SMVWC_20_CM_MEAN,SMANOM_20_CM_MEAN,SMPERC_20_CM_30COUNTS,SMPERC_20_CM_70COUNTS,SMVWC_50_CM_MEAN,SMANOM_50_CM_MEAN,SMPERC_50_CM_30COUNTS,SMPERC_50_CM_70COUNTS,SMVWC_100_CM_MEAN,SMANOM_100_CM_MEAN,SMPERC_100_CM_30COUNTS,SMPERC_100_CM_70COUNTS,SMVWC_TOP_CM_MEAN,SMANOM_TOP_CM_MEAN,SMPERC_TOP_CM_30COUNTS,SMPERC_TOP_CM_70COUNTS,SMVWC_COLUMN_CM_MEAN,SMANOM_COLUMN_CM_MEAN,SMPERC_COLUMN_CM_30COUNTS,SMPERC_COLUMN_CM_70COUNTS
63858,20090424,-87.24,32.46,,,,,,,,,,,,,,,,,,,,,,,,,,,,
63858,20090425,-87.24,32.46,,,,,,,,,,,,,,,,,,,,,,,,,,,,
63858,20090426,-87.24,32.46,,,,,,,,,,,,,,,,,,,,,,,,,,,,
63858,20090427,-87.24,32.46,,,,,,,,,,,,,,,,,,,,,,,,,,,,
63858,20090428,-87.24,32.46,,,,,,,,,,,,,,,,,,,,,,,,,,,,
63858,20090429,-87.24,32.46,,,,,,,,,,,,,,,,,,,,,,,,,,,,
63858,20090430,-87.24,32.46,0.587,0.75,0,0.994,0.627,0.73,0,1,0.594,0.47,0,0.994,0.576,0.04,0,0,0.603,-0.53,0.564,0.013,0.607,0.84,0,1,0.597,0.6,0,0.987
63858,20090501,-87.24,32.46,0.578,0.68,0,0.863,0.625,0.72,0,1,0.594,0.49,0,0.994,0.576,0.05,0,0,0.604,-0.51,0.53,0.012,0.601,0.8,0,1,0.595,0.58,0,0.905
63858,20090502,-87.24,32.46,0.564,0.59,0,0.72,0.622,0.72,0,1,0.595,0.52,0,0.994,0.576,0.04,0,0,0.605,-0.47,0.482,0.012,0.593,0.74,0,0.994,0.592,0.54,0,0.786
63858,20090503,-87.24,32.46,0.548,0.49,0,0.577,0.618,0.7,0,1,0.596,0.55,0,0.994,0.576,0.05,0,0,0.605,-0.48,0.488,0.012,0.583,0.67,0,0.911,0.589,0.5,0,0.643
63858,20090504,-87.24,32.46,0.535,0.4,0,0.446,0.616,0.7,0,0.994,0.598,0.59,0,0.994,0.577,0.06,0,0.006,0.605,-0.48,0.53,0.006,0.575,0.62,0,0.875,0.586,0.46,0,0.554
63858,20090505,-87.24,32.46,0.534,0.41,0,0.446,0.618,0.75,0,0.994,0.601,0.66,0,1,0.581,0.13,0,0.143,0.606,-0.45,0.506,0.006,0.576,0.65,0,0.875,0.588,0.5,0,0.554
63858,20090506,-87.24,32.46,0.534,0.42,0,0.446,0.62,0.79,0,0.994,0.604,0.72,0,1,0.583,0.15,0,0.167,0.607,-0.44,0.482,0,0.577,0.68,0,0.875,0.589,0.53,0,0.56
63858,20090507,-87.24,32.46,0.545,0.53,0,0.452,0.625,0.86,0,0.994,0.608,0.81,0,1,0.587,0.21,0,0.262,0.607,-0.44,0.482,0,0.585,0.78,0,0.875,0.594,0.6,0,0.565
63858,20090508,-87.24,32.46,0.562,0.67,0,0.583,0.631,0.95,0,0.994,0.613,0.91,0,1,0.592,0.3,0,0.405,0.607,-0.43,0.47,0,0.596,0.91,0,0.875,0.601,0.71,0,0.649
63858,20090509,-87.24,32.46,0.579,0.82,0,0.726,0.637,1.04,0,0.994,0.617,0.99,0,1,0.597,0.39,0,0.548,0.607,-0.43,0.452,0,0.608,1.04,0,0.881,0.608,0.81,0,0.768
63858,20090510,-87.24,32.46,0.597,0.97,0,0.869,0.645,1.14,0,0.994,0.62,1.07,0,1,0.602,0.47,0,0.69,0.609,-0.4,0.417,0,0.621,1.17,0,0.964,0.615,0.92,0,0.911
63858,20090511,-87.24,32.46,0.614,1.13,0,1,0.651,1.22,0,1,0.623,1.13,0,1,0.607,0.55,0,0.827,0.609,-0.4,0.411,0,0.632,1.29,0,1,0.621,1.02,0,1
63858,20090512,-87.24,32.46,0.621,1.2,0,1,0.652,1.26,0,1,0.623,1.16,0,1,0.608,0.58,0,0.833,0.609,-0.38,0.393,0.006,0.636,1.33,0,1,0.623,1.06,0,1
63858,20090513,-87.24,32.46,0.627,1.27,0,1,0.654,1.29,0,1,0.624,1.2,0,1,0.611,0.63,0,0.94,0.61,-0.38,0.381,0.006,0.64,1.37,0,1,0.625,1.11,0,1
63858,20090514,-87.24,32.46,0.623,1.27,0,1,0.653,1.3,0,1,0.623,1.19,0,1,0.61,0.61,0,0.946,0.612,-0.33,0.321,0.018,0.638,1.35,0,1,0.624,1.11,0,1
63858,20090515,-87.24,32.46,0.616,1.22,0,1,0.651,1.28,0,1,0.621,1.18,0,1,0.606,0.56,0,0.869,0.614,-0.29,0.286,0.018,0.634,1.29,0,1,0.622,1.08,0,1
63858,20090516,-87.24,32.46,0.608,1.17,0,1,0.648,1.25,0,1,0.619,1.16,0,1,0.603,0.51,0,0.768,0.615,-0.27,0.274,0.018,0.628,1.23,0,1,0.619,1.04,0,1
63858,20090517,-87.24,32.46,0.6,1.1,0,1,0.645,1.22,0,1,0.619,1.16,0,1,0.6,0.45,0,0.661,0.616,-0.26,0.268,0.018,0.623,1.17,0,1,0.616,1.01,0,1
63858,20090518,-87.24,32.46,0.593,1.04,0,1,0.642,1.18,0,1,0.618,1.14,0,1,0.596,0.4,0,0.554,0.617,-0.24,0.244,0.018,0.617,1.1,0,1,0.613,0.97,0,1
63858,20090519,-87.24,32.46,0.585,0.96,0,1,0.637,1.12,0,1,0.617,1.12,0,1,0.593,0.35,0,0.458,0.616,-0.25,0.268,0.018,0.611,1.03,0,1,0.61,0.92,0,1
63858,20090520,-87.24,32.46,0.575,0.88,0,1,0.631,1.05,0,1,0.615,1.08,0,1,0.59,0.3,0,0.363,0.616,-0.24,0.262,0.018,0.603,0.95,0,1,0.606,0.87,0,1
63858,20090521,-87.24,32.46,0.561,0.77,0,1,0.623,0.97,0,1,0.613,1.04,0,1,0.589,0.29,0,0.321,0.615,-0.27,0.298,0.006,0.592,0.86,0,1,0.6,0.81,0,1
63858,20090522,-87.24,32.46,0.546,0.67,0,0.94,0.615,0.9,0,1,0.611,1,0,1,0.589,0.29,0,0.304,0.615,-0.27,0.31,0.006,0.581,0.76,0,1,0.595,0.75,0,1
63858,20090523,-87.24,32.46,0.535,0.6,0,0.905,0.608,0.83,0,1,0.608,0.96,0,1,0.588,0.29,0,0.304,0.615,-0.26,0.315,0.024,0.572,0.69,0,0.994,0.591,0.7,0,1
63858,20090524,-87.24,32.46,0.542,0.65,0,0.905,0.611,0.84,0,1,0.608,0.95,0,1,0.592,0.36,0,0.393,0.617,-0.23,0.286,0.054,0.576,0.73,0,0.994,0.594,0.75,0,1
63858,20090525,-87.24,32.46,0.555,0.73,0,0.905,0.615,0.87,0,1,0.61,0.98,0,1,0.597,0.47,0,0.5,0.618,-0.2,0.256,0.06,0.585,0.78,0,0.994,0.599,0.82,0,1
63858,20090526,-87.24,32.46,0.569,0.83,0,0.905,0.621,0.93,0,1,0.613,1,0,1,0.603,0.59,0,0.595,0.619,-0.18,0.232,0.054,0.595,0.86,0,0.994,0.605,0.9,0,1
63858,20090527,-87.24,32.46,0.586,0.94,0,0.905,0.63,1,0,1,0.616,1.03,0,1,0.609,0.7,0,0.702,0.62,-0.16,0.238,0.06,0.608,0.95,0,0.994,0.612,1,0,1
63858,20090528,-87.24,32.46,0.608,1.08,0,0.905,0.639,1.08,0,1,0.62,1.07,0,1,0.615,0.82,0,0.786,0.621,-0.14,0.196,0.06,0.624,1.07,0,0.994,0.621,1.11,0,1
63858,20090529,-87.24,32.46,0.633,1.24,0,0.964,0.65,1.18,0,1,0.624,1.12,0,1,0.621,0.94,0,0.881,0.621,-0.14,0.19,0.065,0.642,1.2,0,0.994,0.63,1.23,0,1
63858,20090530,-87.24,32.46,0.655,1.39,0,1,0.661,1.27,0,1,0.629,1.17,0,1,0.628,1.06,0,0.982,0.622,-0.13,0.167,0.048,0.658,1.32,0,1,0.639,1.35,0,1
63858,20090531,-87.24,32.46,0.658,1.41,0,1,0.66,1.27,0,1,0.63,1.17,0,1,0.63,1.1,0,1,0.62,-0.17,0.199,0.018,0.659,1.34,0,1,0.639,1.36,0,1
63858,20090601,-87.24,32.46,0.651,1.38,0,1,0.656,1.24,0,1,0.628,1.16,0,1,0.63,1.12,0,1,0.619,-0.18,0.205,0.012,0.654,1.31,0,1,0.637,1.34,0,1
63858,20090602,-87.24,32.46,0.641,1.33,0,1,0.651,1.19,0,1,0.627,1.14,0,1,0.626,1.06,0,0.994,0.618,-0.2,0.235,0.012,0.646,1.25,0,1,0.632,1.29,0,1
63858,20090603,-87.24,32.46,0.629,1.26,0,1,0.644,1.13,0,1,0.626,1.13,0,1,0.621,1,0,0.994,0.616,-0.23,0.247,0.006,0.637,1.2,0,1,0.627,1.24,0,1
63858,20090604,-87.24,32.46,0.618,1.2,0,1,0.638,1.07,0,1,0.625,1.12,0,1,0.616,0.93,0,0.994,0.615,-0.25,0.289,0.006,0.628,1.13,0,1,0.622,1.19,0,1
63858,20090605,-87.24,32.46,0.609,1.14,0,1,0.634,1.03,0,1,0.624,1.11,0,1,0.611,0.87,0,0.994,0.614,-0.27,0.301,0,0.621,1.08,0,1,0.618,1.15,0,1
63858,20090606,-87.24,32.46,0.602,1.1,0,1,0.629,0.98,0,1,0.624,1.1,0,1,0.606,0.8,0,0.988,0.613,-0.3,0.355,0,0.616,1.04,0,1,0.615,1.11,0,1
63858,20090607,-87.24,32.46,0.597,1.06,0,1,0.626,0.95,0,1,0.623,1.09,0,1,0.601,0.75,0,0.976,0.612,-0.31,0.375,0.006,0.612,1.01,0,1,0.612,1.08,0,1
63858,20090608,-87.24,32.46,0.589,1.02,0,1,0.622,0.91,0,1,0.623,1.08,0,1,0.595,0.69,0,0.97,0.612,-0.32,0.417,0.006,0.606,0.97,0,1,0.608,1.05,0,1
63858,20090609,-87.24,32.46,0.579,0.96,0,1,0.617,0.87,0,1,0.621,1.06,0,1,0.594,0.71,0,0.976,0.611,-0.34,0.452,0.006,0.598,0.92,0,1,0.604,1.01,0,1
63858,20090610,-87.24,32.46,0.565,0.88,0,0.905,0.609,0.81,0,1,0.619,1.03,0,1,0.594,0.74,0,0.976,0.611,-0.33,0.446,0.006,0.587,0.86,0,0.929,0.6,0.97,0,1
63858,20090611,-87.24,32.46,0.547,0.79,0,0.762,0.599,0.73,0,0.935,0.614,0.98,0,1,0.594,0.78,0,0.976,0.611,-0.34,0.47,0.006,0.573,0.77,0,0.786,0.593,0.9,0,1
63858,20090612,-87.24,32.46,0.524,0.66,0,0.619,0.585,0.61,0,0.792,0.605,0.89,0,0.988,0.593,0.81,0,0.976,0.611,-0.34,0.494,0.012,0.554,0.65,0,0.643,0.584,0.8,0,0.935
63858,20090613,-87.24,32.46,0.497,0.51,0,0.476,0.568,0.49,0,0.649,0.595,0.79,0,0.899,0.594,0.85,0,0.982,0.611,-0.34,0.488,0.012,0.532,0.52,0,0.5,0.573,0.69,0,0.792
63858,20090614,-87.24,32.46,0.482,0.44,0,0.44,0.564,0.46,0,0.631,0.59,0.74,0,0.881,0.594,0.89,0,0.994,0.611,-0.33,0.476,0.006,0.523,0.47,0,0.464,0.568,0.66,0,0.774
63858,20090615,-87.24,32.46,0.473,0.4,0,0.44,0.562,0.46,0,0.631,0.586,0.71,0,0.881,0.594,0.93,0,1,0.612,-0.31,0.44,0.012,0.518,0.45,0,0.464,0.565,0.65,0,0.774
63858,20090616,-87.24,32.46,0.466,0.38,0,0.44,0.56,0.46,0,0.631,0.582,0.69,0,0.881,0.595,0.97,0,1,0.613,-0.28,0.417,0.012,0.513,0.44,0,0.464,0.563,0.66,0,0.774
63858,20090617,-87.24,32.46,0.461,0.36,0,0.435,0.558,0.46,0,0.631,0.577,0.66,0,0.881,0.596,1.01,0,1,0.613,-0.29,0.435,0.018,0.509,0.43,0,0.518,0.561,0.66,0,0.774
63858,20090618,-87.24,32.46,0.456,0.36,0,0.435,0.554,0.46,0,0.637,0.573,0.64,0,0.881,0.597,1.05,0,1,0.612,-0.31,0.44,0.018,0.505,0.43,0,0.518,0.559,0.67,0,0.774
63858,20090619,-87.24,32.46,0.453,0.36,0,0.435,0.551,0.45,0,0.637,0.571,0.64,0,0.893,0.597,1.08,0,1,0.612,-0.3,0.423,0.012,0.502,0.43,0,0.518,0.557,0.68,0,0.839
63858,20090620,-87.24,32.46,0.45,0.36,0,0.435,0.548,0.45,0,0.637,0.568,0.63,0,0.893,0.597,1.1,0,1,0.613,-0.3,0.44,0.018,0.499,0.42,0,0.518,0.555,0.69,0,0.929
63858,20090621,-87.24,32.46,0.434,0.29,0,0.327,0.531,0.33,0,0.512,0.559,0.55,0,0.768,0.596,1.1,0,1,0.613,-0.29,0.458,0.024,0.482,0.33,0,0.411,0.547,0.61,0,0.815
63858,20090622,-87.24,32.46,0.414,0.19,0,0.185,0.51,0.19,0,0.369,0.547,0.44,0,0.625,0.595,1.09,0,1,0.614,-0.28,0.47,0.024,0.462,0.21,0,0.268,0.536,0.5,0,0.673
63858,20090623,-87.24,32.46,0.396,0.1,0,0.042,0.491,0.05,0,0.226,0.535,0.32,0,0.482,0.591,1.03,0,1,0.613,-0.3,0.47,0.024,0.443,0.1,0,0.125,0.525,0.39,0,0.53
63858,20090624,-87.24,32.46,0.378,0.01,0,0,0.474,-0.07,0.006,0.083,0.523,0.2,0,0.339,0.586,0.94,0,0.97,0.613,-0.31,0.476,0.024,0.426,0,0,0,0.515,0.27,0,0.387
63858,20090625,-87.24,32.46,0.363,-0.06,0,0,0.459,-0.17,0.048,0,0.512,0.1,0,0.196,0.577,0.79,0,0.857,0.614,-0.3,0.446,0.03,0.411,-0.09,0.036,0,0.505,0.17,0,0.244
63858,20090626,-87.24,32.46,0.35,-0.12,0,0,0.449,-0.23,0.095,0,0.501,-0.01,0,0.054,0.567,0.59,0.054,0.714,0.614,-0.29,0.435,0.042,0.4,-0.16,0.054,0,0.496,0.07,0.012,0.101
63858,20090627,-87.24,32.46,0.34,-0.17,0,0,0.44,-0.29,0.095,0,0.493,-0.09,0,0,0.556,0.37,0.173,0.571,0.614,-0.29,0.411,0.048,0.39,-0.21,0.054,0,0.489,-0.01,0.018,0.012
63858,20090628,-87.24,32.46,0.331,-0.21,0,0,0.432,-0.33,0.107,0,0.486,-0.15,0,0,0.542,0.08,0.315,0.429,0.612,-0.33,0.417,0.042,0.382,-0.25,0.095,0,0.481,-0.1,0.083,0
63858,20090629,-87.24,32.46,0.324,-0.24,0,0,0.426,-0.36,0.185,0,0.481,-0.19,0,0,0.527,-0.26,0.458,0.286,0.61,-0.39,0.452,0.036,0.375,-0.29,0.179,0,0.473,-0.19,0.214,0
63858,20090630,-87.24,32.46,0.317,-0.26,0.018,0,0.42,-0.39,0.31,0,0.476,-0.23,0.024,0,0.511,-0.62,0.601,0.143,0.609,-0.41,0.476,0.054,0.369,-0.31,0.321,0,0.467,-0.28,0.357,0
63858,20090701,-87.24,32.46,0.311,-0.29,0.107,0,0.414,-0.42,0.446,0,0.471,-0.27,0.125,0,0.496,-1,0.744,0.03,0.611,-0.38,0.458,0.054,0.363,-0.34,0.464,0,0.46,-0.36,0.5,0
63858,20090702,-87.24,32.46,0.306,-0.31,0.232,0,0.408,-0.45,0.548,0,0.466,-0.31,0.256,0,0.481,-1.38,0.887,0,0.61,-0.39,0.494,0.048,0.357,-0.37,0.571,0,0.454,-0.44,0.643,0
63858,20090703,-87.24,32.46,0.301,-0.33,0.363,0,0.4,-0.51,0.643,0,0.462,-0.34,0.399,0,0.467,-1.73,0.976,0,0.609,-0.41,0.518,0.042,0.351,-0.4,0.696,0,0.448,-0.53,0.774,0
63858,20090704,-87.24,32.46,0.295,-0.35,0.506,0,0.393,-0.56,0.786,0,0.458,-0.38,0.542,0,0.454,-2.07,1,0,0.608,-0.43,0.548,0.048,0.344,-0.44,0.839,0,0.442,-0.62,0.911,0
63858,20090705,-87.24,32.46,0.291,-0.38,0.649,0,0.388,-0.6,0.917,0,0.454,-0.42,0.685,0,0.442,-2.34,1,0,0.609,-0.41,0.542,0.054,0.339,-0.47,0.94,0,0.437,-0.69,0.988,0
63858,20090706,-87.24,32.46,0.289,-0.38,0.744,0,0.389,-0.59,0.899,0,0.454,-0.41,0.744,0,0.434,-2.53,1,0,0.61,-0.39,0.542,0.054,0.339,-0.47,0.917,0,0.435,-0.71,0.976,0
63858,20090707,-87.24,32.46,0.294,-0.35,0.726,0,0.399,-0.52,0.774,0.024,0.454,-0.4,0.72,0,0.428,-2.63,1,0,0.61,-0.39,0.542,0.054,0.347,-0.41,0.774,0,0.437,-0.66,0.863,0
63858,20090708,-87.24,32.46,0.3,-0.31,0.637,0,0.407,-0.46,0.631,0.024,0.455,-0.39,0.619,0,0.425,-2.63,1,0,0.608,-0.43,0.565,0.048,0.354,-0.36,0.631,0,0.439,-0.62,0.786,0
63858,20090709,-87.24,32.46,0.307,-0.27,0.512,0,0.413,-0.42,0.488,0.024,0.456,-0.38,0.5,0,0.424,-2.56,1,0,0.608,-0.44,0.565,0.048,0.36,-0.32,0.488,0,0.441,-0.58,0.744,0
63858,20090710,-87.24,32.46,0.311,-0.25,0.381,0,0.418,-0.38,0.357,0.024,0.456,-0.38,0.47,0,0.424,-2.43,1,0,0.606,-0.48,0.583,0.048,0.365,-0.29,0.345,0,0.443,-0.54,0.726,0
63858,20090711,-87.24,32.46,0.315,-0.24,0.262,0,0.422,-0.35,0.339,0.024,0.456,-0.38,0.47,0,0.424,-2.26,1,0,0.603,-0.54,0.619,0.03,0.368,-0.27,0.274,0,0.444,-0.5,0.726,0
63858,20090712,-87.24,32.46,0.317,-0.23,0.226,0,0.426,-0.32,0.339,0.024,0.456,-0.38,0.47,0,0.426,-2.06,1,0,0.602,-0.58,0.649,0.03,0.371,-0.26,0.274,0,0.445,-0.46,0.726,0
63858,20090713,-87.24,32.46,0.316,-0.25,0.274,0,0.423,-0.34,0.423,0.024,0.451,-0.43,0.554,0,0.428,-1.86,1,0,0.601,-0.6,0.649,0.042,0.37,-0.28,0.357,0,0.444,-0.46,0.75,0
63858,20090714,-87.24,32.46,0.31,-0.29,0.351,0,0.426,-0.33,0.435,0.012,0.456,-0.39,0.565,0.006,0.44,-1.54,0.875,0.006,0.602,-0.56,0.607,0.048,0.368,-0.31,0.375,0,0.447,-0.42,0.732,0
63858,20090715,-87.24,32.46,0.312,-0.29,0.351,0,0.437,-0.27,0.435,0.024,0.464,-0.33,0.565,0.018,0.453,-1.23,0.738,0.012,0.602,-0.56,0.625,0.054,0.375,-0.28,0.375,0,0.454,-0.34,0.667,0.024
63858,20090716,-87.24,32.46,0.318,-0.26,0.351,0,0.448,-0.2,0.435,0.024,0.472,-0.26,0.554,0.018,0.466,-0.95,0.595,0.012,0.603,-0.53,0.619,0.065,0.383,-0.25,0.375,0,0.462,-0.25,0.565,0.024
63858,20090717,-87.24,32.46,0.33,-0.2,0.351,0,0.463,-0.1,0.423,0.077,0.484,-0.17,0.44,0.042,0.481,-0.67,0.452,0.048,0.604,-0.51,0.619,0.071,0.397,-0.17,0.375,0.012,0.473,-0.13,0.44,0.119
63858,20090718,-87.24,32.46,0.347,-0.11,0.327,0,0.479,0.01,0.298,0.077,0.496,-0.07,0.298,0.042,0.496,-0.43,0.31,0.048,0.607,-0.45,0.571,0.071,0.413,-0.08,0.304,0.012,0.485,0,0.298,0.173
63858,20090719,-87.24,32.46,0.36,-0.04,0.22,0,0.493,0.1,0.155,0.077,0.507,0.02,0.155,0.042,0.51,-0.21,0.167,0.048,0.608,-0.42,0.565,0.071,0.427,-0.01,0.161,0.012,0.496,0.11,0.155,0.173
63858,20090720,-87.24,32.46,0.371,0.02,0.077,0,0.504,0.16,0.012,0.077,0.516,0.09,0.012,0.042,0.523,-0.02,0.024,0.048,0.608,-0.42,0.565,0.065,0.437,0.05,0.018,0.012,0.504,0.19,0.012,0.173
63858,20090721,-87.24,32.46,0.377,0.05,0,0,0.497,0.11,0,0.065,0.513,0.06,0,0.036,0.524,0,0.006,0.042,0.605,-0.48,0.607,0.065,0.437,0.04,0,0.012,0.503,0.16,0,0.173
63858,20090722,-87.24,32.46,0.372,0.02,0,0,0.485,0.02,0.095,0.054,0.507,-0.01,0,0.024,0.52,-0.02,0,0.036,0.605,-0.48,0.625,0.06,0.429,-0.01,0,0.012,0.498,0.09,0,0.149
63858,20090723,-87.24,32.46,0.364,-0.03,0,0,0.473,-0.08,0.238,0.054,0.5,-0.08,0.018,0.024,0.516,-0.05,0,0.036,0.604,-0.5,0.631,0.048,0.419,-0.08,0.077,0.012,0.491,0,0.012,0.149
63858,20090724,-87.24,32.46,0.35,-0.11,0,0,0.456,-0.21,0.381,0,0.489,-0.17,0.107,0,0.509,-0.12,0.036,0,0.603,-0.52,0.661,0.036,0.403,-0.18,0.208,0,0.481,-0.11,0.095,0.054
63858,20090725,-87.24,32.46,0.331,-0.21,0.107,0,0.438,-0.34,0.524,0,0.478,-0.28,0.25,0,0.5,-0.2,0.155,0,0.603,-0.52,0.69,0.036,0.384,-0.3,0.351,0,0.47,-0.24,0.232,0
63858,20090726,-87.24,32.46,0.316,-0.29,0.25,0,0.421,-0.47,0.667,0,0.467,-0.38,0.393,0,0.491,-0.28,0.298,0,0.602,-0.53,0.702,0.036,0.368,-0.4,0.494,0,0.459,-0.35,0.375,0
63858,20090727,-87.24,32.46,0.303,-0.36,0.393,0,0.406,-0.58,0.81,0,0.458,-0.47,0.536,0,0.481,-0.36,0.44,0,0.602,-0.53,0.732,0.03,0.354,-0.48,0.637,0,0.45,-0.44,0.518,0
63858,20090728,-87.24,32.46,0.293,-0.41,0.536,0,0.393,-0.67,0.952,0,0.45,-0.54,0.679,0,0.471,-0.45,0.583,0,0.601,-0.53,0.762,0.006,0.343,-0.55,0.78,0,0.441,-0.51,0.661,0
63858,20090729,-87.24,32.46,0.285,-0.45,0.679,0,0.385,-0.73,1,0,0.446,-0.58,0.774,0,0.461,-0.53,0.726,0,0.6,-0.53,0.744,0.006,0.335,-0.59,0.923,0,0.435,-0.56,0.804,0
63858,20090730,-87.24,32.46,0.282,-0.46,0.78,0,0.381,-0.75,0.994,0,0.445,-0.59,0.833,0,0.451,-0.61,0.869,0,0.6,-0.54,0.738,0.006,0.331,-0.61,0.946,0,0.432,-0.6,0.905,0
63858,20090731,-87.24,32.46,0.284,-0.44,0.78,0,0.38,-0.75,0.994,0,0.445,-0.59,0.815,0,0.443,-0.68,0.976,0,0.599,-0.53,0.738,0.006,0.332,-0.6,0.827,0,0.43,-0.61,0.917,0
63858,20090801,-87.24,32.46,0.304,-0.34,0.673,0.024,0.395,-0.64,0.875,0.012,0.446,-0.58,0.768,0,0.437,-0.72,1,0,0.599,-0.54,0.768,0.006,0.35,-0.49,0.685,0.018,0.436,-0.56,0.78,0
63858,20090802,-87.24,32.46,0.344,-0.12,0.53,0.107,0.426,-0.41,0.732,0.095,0.462,-0.42,0.685,0.077,0.45,-0.61,0.917,0.077,0.601,-0.49,0.708,0,0.385,-0.27,0.542,0.101,0.457,-0.4,0.637,0.077
63858,20090803,-87.24,32.46,0.38,0.08,0.387,0.25,0.457,-0.19,0.589,0.238,0.486,-0.2,0.542,0.22,0.478,-0.37,0.774,0.22,0.606,-0.39,0.589,0.012,0.418,-0.06,0.399,0.244,0.481,-0.2,0.494,0.22
63858,20090804,-87.24,32.46,0.41,0.25,0.244,0.393,0.483,0,0.446,0.381,0.505,-0.02,0.399,0.363,0.5,-0.16,0.631,0.363,0.612,-0.27,0.47,0.048,0.447,0.12,0.256,0.387,0.502,-0.03,0.351,0.363
63858,20090805,-87.24,32.46,0.435,0.39,0.101,0.506,0.505,0.17,0.304,0.518,0.519,0.12,0.304,0.506,0.52,0.01,0.488,0.476,0.617,-0.16,0.375,0.065,0.47,0.27,0.113,0.524,0.519,0.11,0.208,0.417
63858,20090806,-87.24,32.46,0.454,0.49,0,0.524,0.523,0.3,0.167,0.548,0.53,0.22,0.226,0.577,0.54,0.18,0.345,0.518,0.621,-0.09,0.286,0.083,0.489,0.38,0.012,0.548,0.534,0.22,0.095,0.417
63858,20090807,-87.24,32.46,0.465,0.55,0,0.524,0.536,0.4,0.024,0.548,0.539,0.31,0.155,0.583,0.557,0.34,0.202,0.518,0.624,-0.02,0.196,0.089,0.5,0.46,0,0.548,0.544,0.3,0,0.417
63858,20090808,-87.24,32.46,0.457,0.51,0,0.5,0.533,0.38,0,0.536,0.546,0.38,0.06,0.583,0.574,0.48,0.06,0.518,0.627,0.03,0.071,0.089,0.495,0.42,0,0.53,0.547,0.33,0,0.417
63858,20090809,-87.24,32.46,0.427,0.35,0,0.417,0.515,0.24,0,0.452,0.537,0.3,0,0.506,0.572,0.47,0,0.44,0.627,0.02,0.054,0.089,0.471,0.28,0,0.446,0.536,0.23,0,0.339
63858,20090810,-87.24,32.46,0.402,0.21,0,0.274,0.498,0.13,0,0.31,0.521,0.16,0,0.363,0.557,0.34,0,0.298,0.623,-0.04,0.101,0.077,0.45,0.15,0,0.304,0.52,0.1,0,0.196
63858,20090811,-87.24,32.46,0.389,0.15,0,0.131,0.489,0.06,0,0.167,0.512,0.08,0,0.22,0.547,0.26,0,0.155,0.619,-0.12,0.167,0.042,0.439,0.08,0,0.161,0.511,0.04,0,0.054
63858,20090812,-87.24,32.46,0.391,0.15,0,0.089,0.489,0.05,0,0.101,0.509,0.04,0,0.143,0.544,0.22,0,0.042,0.615,-0.21,0.274,0.024,0.44,0.08,0,0.095,0.509,0.03,0,0.071
63858,20090813,-87.24,32.46,0.401,0.2,0,0.214,0.494,0.09,0,0.214,0.511,0.06,0,0.214,0.543,0.2,0,0,0.612,-0.26,0.357,0.006,0.448,0.12,0,0.214,0.513,0.06,0,0.214
63858,20090814,-87.24,32.46,0.412,0.26,0,0.357,0.5,0.12,0,0.351,0.514,0.08,0,0.345,0.544,0.2,0,0,0.609,-0.32,0.458,0,0.456,0.18,0,0.357,0.516,0.1,0,0.327
63858,20090815,-87.24,32.46,0.422,0.31,0,0.405,0.506,0.17,0,0.393,0.517,0.11,0,0.375,0.545,0.18,0,0,0.606,-0.37,0.583,0,0.464,0.23,0,0.429,0.519,0.13,0,0.357
63858,20090816,-87.24,32.46,0.431,0.36,0,0.405,0.511,0.21,0,0.393,0.52,0.13,0,0.375,0.545,0.17,0,0,0.605,-0.4,0.679,0,0.471,0.28,0,0.429,0.523,0.17,0,0.357
63858,20090817,-87.24,32.46,0.437,0.39,0,0.405,0.515,0.23,0,0.393,0.523,0.15,0,0.375,0.546,0.15,0,0,0.603,-0.43,0.762,0,0.476,0.31,0,0.429,0.525,0.19,0,0.357
63858,20090818,-87.24,32.46,0.44,0.4,0,0.405,0.515,0.23,0,0.393,0.523,0.14,0,0.375,0.546,0.14,0,0,0.602,-0.46,0.839,0,0.477,0.33,0,0.429,0.525,0.2,0,0.357
63858,20090819,-87.24,32.46,0.433,0.37,0,0.333,0.508,0.19,0,0.321,0.519,0.1,0,0.31,0.545,0.12,0,0,0.601,-0.48,0.863,0,0.471,0.29,0,0.357,0.521,0.16,0,0.286
63858,20090820,-87.24,32.46,0.419,0.3,0,0.19,0.497,0.12,0,0.179,0.511,0.02,0,0.167,0.541,0.08,0,0,0.6,-0.5,0.905,0,0.458,0.22,0,0.214,0.514,0.1,0,0.143
63858,20090821,-87.24,32.46,0.408,0.25,0,0.048,0.488,0.05,0,0.042,0.503,-0.05,0,0.03,0.538,0.05,0,0,0.6,-0.51,0.929,0,0.448,0.16,0,0.071,0.507,0.06,0,0.03
63858,20090822,-87.24,32.46,0.402,0.22,0,0,0.48,0,0,0,0.497,-0.12,0,0,0.535,0.02,0,0,0.6,-0.52,0.94,0,0.441,0.12,0,0,0.503,0.02,0,0
63858,20090823,-87.24,32.46,0.398,0.2,0,0,0.474,-0.05,0,0,0.492,-0.17,0,0,0.533,0,0,0,0.6,-0.53,0.946,0,0.436,0.09,0,0,0.499,-0.02,0,0
63858,20090824,-87.24,32.46,0.394,0.17,0,0,0.467,-0.1,0,0,0.487,-0.22,0.054,0,0.529,-0.03,0,0,0.599,-0.54,0.946,0,0.431,0.05,0,0,0.495,-0.05,0,0
63858,20090825,-87.24,32.46,0.384,0.12,0,0,0.46,-0.15,0.095,0,0.482,-0.27,0.196,0,0.526,-0.06,0,0,0.6,-0.54,0.929,0,0.422,0,0,0,0.49,-0.1,0,0
63858,20090826,-87.24,32.46,0.373,0.07,0,0,0.452,-0.21,0.238,0,0.477,-0.33,0.339,0,0.522,-0.1,0,0,0.6,-0.53,0.923,0,0.412,-0.07,0,0,0.485,-0.15,0.054,0
63858,20090827,-87.24,32.46,0.36,0,0,0,0.443,-0.28,0.381,0,0.471,-0.38,0.482,0,0.518,-0.14,0,0,0.601,-0.53,0.923,0,0.401,-0.13,0.101,0,0.479,-0.22,0.19,0
63858,20090828,-87.24,32.46,0.348,-0.06,0,0,0.432,-0.35,0.524,0,0.466,-0.43,0.625,0,0.514,-0.18,0,0,0.601,-0.54,0.923,0,0.39,-0.2,0.244,0,0.472,-0.29,0.333,0
63858,20090829,-87.24,32.46,0.341,-0.09,0,0,0.432,-0.36,0.542,0,0.461,-0.48,0.768,0,0.511,-0.22,0,0,0.601,-0.54,0.899,0,0.387,-0.23,0.25,0,0.469,-0.32,0.351,0
63858,20090830,-87.24,32.46,0.337,-0.11,0,0,0.431,-0.37,0.542,0,0.458,-0.51,0.911,0,0.507,-0.26,0.024,0,0.601,-0.55,0.893,0,0.384,-0.24,0.25,0,0.467,-0.36,0.363,0
63858,20090831,-87.24,32.46,0.345,-0.08,0,0,0.444,-0.28,0.542,0.107,0.463,-0.46,0.887,0,0.507,-0.26,0.036,0,0.602,-0.55,0.899,0,0.395,-0.19,0.25,0.06,0.472,-0.31,0.363,0
63858,20090901,-87.24,32.46,0.358,-0.01,0,0,0.461,-0.17,0.446,0.19,0.474,-0.36,0.744,0,0.509,-0.24,0.036,0,0.601,-0.56,0.911,0,0.41,-0.1,0.25,0.089,0.481,-0.24,0.363,0
63858,20090902,-87.24,32.46,0.372,0.05,0,0,0.476,-0.07,0.304,0.19,0.483,-0.27,0.601,0,0.511,-0.22,0.036,0,0.601,-0.57,0.923,0,0.424,-0.02,0.25,0.089,0.489,-0.16,0.31,0
63858,20090903,-87.24,32.46,0.386,0.12,0,0,0.492,0.04,0.161,0.19,0.493,-0.17,0.458,0,0.514,-0.19,0.036,0,0.6,-0.59,0.94,0,0.439,0.06,0.149,0.089,0.497,-0.08,0.173,0
63858,20090904,-87.24,32.46,0.398,0.18,0,0,0.508,0.15,0.018,0.19,0.503,-0.07,0.315,0,0.515,-0.18,0.036,0,0.6,-0.59,0.935,0,0.453,0.15,0.006,0.089,0.505,0,0.03,0
63858,20090905,-87.24,32.46,0.4,0.2,0,0,0.513,0.18,0,0.19,0.511,0.01,0.173,0,0.517,-0.16,0.036,0,0.599,-0.59,0.952,0,0.457,0.17,0,0.089,0.508,0.04,0.012,0
63858,20090906,-87.24,32.46,0.423,0.3,0,0.083,0.531,0.31,0,0.28,0.528,0.18,0.03,0.089,0.528,-0.05,0.012,0.083,0.601,-0.56,0.893,0,0.477,0.29,0,0.179,0.522,0.19,0,0.089
63858,20090907,-87.24,32.46,0.44,0.39,0,0.226,0.539,0.37,0,0.315,0.54,0.3,0,0.232,0.545,0.1,0,0.226,0.605,-0.48,0.756,0,0.489,0.38,0,0.262,0.534,0.31,0,0.232
63858,20090908,-87.24,32.46,0.452,0.45,0,0.369,0.543,0.4,0,0.375,0.544,0.35,0,0.375,0.558,0.22,0,0.369,0.609,-0.4,0.625,0.006,0.497,0.44,0,0.375,0.541,0.39,0,0.375
63858,20090909,-87.24,32.46,0.462,0.5,0,0.512,0.547,0.44,0,0.518,0.548,0.41,0,0.518,0.566,0.29,0,0.44,0.613,-0.32,0.488,0.006,0.504,0.49,0,0.518,0.547,0.45,0,0.518
63858,20090910,-87.24,32.46,0.466,0.53,0,0.565,0.55,0.47,0,0.661,0.551,0.45,0,0.661,0.572,0.35,0,0.44,0.617,-0.23,0.345,0.006,0.508,0.52,0,0.661,0.551,0.49,0,0.661
63858,20090911,-87.24,32.46,0.487,0.63,0,0.649,0.562,0.56,0,0.792,0.56,0.55,0,0.798,0.582,0.43,0,0.518,0.621,-0.16,0.208,0.006,0.525,0.63,0,0.786,0.562,0.59,0,0.78
63858,20090912,-87.24,32.46,0.517,0.76,0,0.792,0.577,0.66,0,0.935,0.572,0.67,0,0.94,0.595,0.55,0,0.661,0.624,-0.1,0.095,0.006,0.547,0.75,0,0.929,0.577,0.71,0,0.923
63858,20090913,-87.24,32.46,0.523,0.79,0,0.851,0.578,0.67,0,0.988,0.57,0.67,0,0.994,0.599,0.58,0,0.72,0.625,-0.07,0.042,0.006,0.55,0.76,0,0.982,0.579,0.71,0,0.976
63858,20090914,-87.24,32.46,0.521,0.77,0,0.851,0.576,0.66,0,0.988,0.566,0.64,0,0.994,0.594,0.53,0,0.72,0.626,-0.06,0.042,0.006,0.549,0.74,0,0.982,0.577,0.66,0,0.976
63858,20090915,-87.24,32.46,0.536,0.83,0,0.851,0.585,0.71,0,0.988,0.571,0.69,0,0.994,0.591,0.5,0,0.702,0.626,-0.05,0.042,0,0.56,0.78,0,0.982,0.582,0.68,0,0.976
63858,20090916,-87.24,32.46,0.557,0.91,0,0.851,0.597,0.78,0,0.988,0.581,0.78,0,0.994,0.596,0.54,0,0.774,0.626,-0.04,0.048,0.006,0.577,0.85,0,0.982,0.591,0.73,0,0.976
63858,20090917,-87.24,32.46,0.588,1.04,0,0.94,0.614,0.88,0,0.988,0.593,0.89,0,0.994,0.604,0.6,0,0.917,0.626,-0.05,0.065,0.006,0.601,0.96,0,0.982,0.605,0.82,0,0.976
63858,20090918,-87.24,32.46,0.605,1.11,0,1,0.624,0.93,0,1,0.6,0.95,0,1,0.609,0.63,0,0.982,0.626,-0.04,0.083,0.006,0.614,1,0,1,0.613,0.86,0,1
63858,20090919,-87.24,32.46,0.618,1.16,0,1,0.632,0.97,0,1,0.606,0.99,0,1,0.61,0.63,0,0.982,0.628,-0.01,0.06,0.012,0.625,1.04,0,1,0.619,0.88,0,1